Location: Rodanthe
(35.5920°N, 75.4670°W)
Time: 13:46:46
(UTC-05:00)

ISS - All Passes

Search period start: 03 March 2015 00:00
Search period end: 13 March 2015 01:00
Orbit: 397 x 407 km, 51.6° (Epoch: 03 March)

Date Brightness Start Highest point End Pass type
(mag) Time Alt. Az. Time Alt. Az. Time Alt. Az.
03 Mar - 07:33:04 10° S 07:35:45 25° SE 07:38:28 10° ENE daylight
03 Mar - 09:09:20 10° W 09:12:07 26° NW 09:14:54 10° NNE daylight
03 Mar - 14:03:32 10° N 14:05:06 13° NNE 14:06:45 10° NE daylight
03 Mar - 15:38:42 10° NW 15:41:56 85° SW 15:45:11 10° SE daylight
04 Mar - 06:41:39 10° SSE 06:42:51 12° SE 06:44:11 10° ESE daylight
04 Mar - 08:15:50 10° WSW 08:18:58 51° NW 08:22:08 10° NE daylight
04 Mar - 14:45:45 10° NW 14:48:52 43° NE 14:51:58 10° ESE daylight
04 Mar - 16:23:12 10° W 16:25:03 14° SW 16:26:48 10° SSW daylight
05 Mar - 07:22:42 10° SW 07:25:54 71° SE 07:29:07 10° NE daylight
05 Mar - 09:00:48 10° WNW 09:02:40 14° NNW 09:04:28 10° N daylight
05 Mar - 13:52:59 10° NNW 13:55:39 23° NNE 13:58:21 10° E daylight
05 Mar - 15:29:13 10° WNW 15:32:05 29° SW 15:34:57 10° SSE daylight
06 Mar - 06:30:01 10° SSW 06:32:52 30° SE 06:35:46 10° ENE daylight
06 Mar - 08:06:40 10° W 08:09:19 23° NNW 08:11:57 10° NNE daylight
06 Mar - 13:00:27 10° N 13:02:19 14° NNE 13:04:14 10° ENE daylight
06 Mar - 14:35:51 10° NW 14:39:04 69° SW 14:42:16 10° SE daylight
07 Mar - 05:38:05 10° SSE 05:39:53 14° SE 05:41:46 10° E visible
07 Mar - 07:12:58 10° WSW 07:16:03 42° NW 07:19:08 10° NE daylight
07 Mar - 13:42:45 10° NW 13:45:55 52° NE 13:49:05 10° ESE daylight
07 Mar - 15:20:48 10° WSW 15:22:02 12° SW 15:23:08 10° SSW daylight
08 Mar - 07:19:39 10° SW 07:22:52 88° SE 07:26:06 10° NE daylight
08 Mar - 08:58:08 10° NW 08:59:42 13° NNW 09:01:13 10° N daylight
08 Mar - 13:49:51 10° NNW 13:52:39 27° NE 13:55:28 10° E daylight
08 Mar - 15:26:18 10° WNW 15:29:00 24° SW 15:31:41 10° S daylight
09 Mar - 06:26:44 10° SSW 06:29:44 37° SE 06:32:45 10° ENE visible
09 Mar - 08:03:45 10° W 08:06:15 20° NNW 08:08:43 10° NNE daylight
09 Mar - 12:57:08 10° NNW 12:59:15 16° NNE 13:01:24 10° ENE daylight
09 Mar - 14:32:44 10° WNW 14:35:54 55° SW 14:39:04 10° SSE daylight
10 Mar - 05:34:27 10° S 05:36:38 17° SE 05:38:54 10° E visible
10 Mar - 07:09:52 10° WSW 07:12:52 35° NW 07:15:53 10° NNE daylight
10 Mar - 12:05:02 10° N 12:05:43 11° NNE 12:06:30 10° NE daylight
10 Mar - 13:39:29 10° NW 13:42:42 64° NE 13:45:54 10° ESE daylight
11 Mar - 06:16:21 10° SW 06:19:34 76° NW 06:22:48 10° NE visible
11 Mar - 07:55:16 10° NW 07:56:29 11° NNW 07:57:37 10° N daylight
11 Mar - 12:46:27 10° NNW 12:49:22 31° NE 12:52:18 10° E daylight
11 Mar - 14:23:10 10° W 14:25:39 20° SW 14:28:06 10° S daylight
12 Mar - 05:23:13 10° SSW 05:26:20 46° SE 05:29:27 10° ENE visible
12 Mar - 07:00:36 10° WNW 07:02:55 18° NNW 07:05:12 10° NNE daylight
12 Mar - 11:53:36 10° NNW 11:55:54 18° NNE 11:58:15 10° ENE daylight
12 Mar - 13:29:23 10° WNW 13:32:29 44° SW 13:35:34 10° SSE daylight
